Voltar ao catálogo

WESTFORD NEEDLES

AtivoPO
NORAD 2365·DEBRIS·🇺🇸 United States

Lançado May 9, 1963 de Vandenberg Space Force Base

Loading…

Próximas Passagens (próximas 24 horas)

TLE

AtualizadoSource: Space-Track

Época: Sep 14, 2026, 22:03 UTC

1 02365U 63014Q   26257.91914821 -.00000046  00000-0 -22372-1 0  9996
2 02365  87.3105  89.5935 0185073 108.0534 254.0580  8.67894505  4725

Acompanhe WESTFORD NEEDLES em tempo real com AllMySat

Download on the App Store